| time (UTC) | temp C | wind direction | speed KPH | gust KPH | rain 1hr cm | rain 24hr cm | rain mn cm | humidity % | barometer mb |
| 20260507144237 | 13 | 33 | 16.1 | 22.5 | 0.00 | 0.00 | 0.00 | 68 | 1018.0 |
| 20260507143738 | 12 | 34 | 14.5 | 22.5 | 0.00 | 0.00 | 0.00 | 68 | 1018.0 |
| 20260507143238 | 12 | 33 | 17.7 | 24.1 | 0.00 | 0.00 | 0.00 | 69 | 1018.0 |
| 20260507142738 | 12 | 36 | 12.9 | 16.1 | 0.00 | 0.00 | 0.00 | 71 | 1018.0 |
| 20260507142237 | 12 | 38 | 14.5 | 20.9 | 0.00 | 0.00 | 0.00 | 71 | 1018.0 |
| 20260507141738 | 12 | 30 | 12.9 | 19.3 | 0.00 | 0.00 | 0.00 | 71 | 1018.0 |
| 20260507141238 | 12 | 34 | 12.9 | 22.5 | 0.00 | 0.00 | 0.00 | 71 | 1018.0 |
| 20260507140739 | 12 | 36 | 9.7 | 17.7 | 0.00 | 0.00 | 0.00 | 73 | 1018.0 |
| 20260507140237 | 11 | 34 | 9.7 | 17.7 | 0.00 | 0.00 | 0.00 | 73 | 1018.0 |
| 20260507135737 | 11 | 38 | 8.0 | 14.5 | 0.00 | 0.00 | 0.00 | 75 | 1018.0 |
| 20260507135238 | 11 | 19 | 11.3 | 14.5 | 0.00 | 0.00 | 0.00 | 75 | 1018.0 |
| 20260507134737 | 11 | 23 | 11.3 | 17.7 | 0.00 | 0.00 | 0.00 | 75 | 1018.0 |
| 20260507134238 | 11 | 29 | 8.0 | 17.7 | 0.00 | 0.00 | 0.00 | 78 | 1018.0 |
| 20260507133738 | 11 | 16 | 8.0 | 12.9 | 0.00 | 0.00 | 0.00 | 78 | 1018.0 |
| 20260507133238 | 10 | 25 | 9.7 | 16.1 | 0.00 | 0.00 | 0.00 | 79 | 1018.0 |
| 20260507132738 | 10 | 33 | 8.0 | 11.3 | 0.00 | 0.00 | 0.00 | 80 | 1018.0 |
| 20260507132238 | 10 | 32 | 8.0 | 11.3 | 0.00 | 0.00 | 0.00 | 81 | 1018.0 |
| 20260507131737 | 10 | 38 | 9.7 | 14.5 | 0.00 | 0.00 | 0.00 | 82 | 1018.0 |
| 20260507131237 | 10 | 34 | 6.4 | 9.7 | 0.00 | 0.00 | 0.00 | 84 | 1018.0 |
| 20260507130737 | 9 | 31 | 11.3 | 16.1 | 0.00 | 0.00 | 0.00 | 84 | 1018.0 |
| 20260507130241 | 9 | 41 | 9.7 | 16.1 | 0.00 | 0.00 | 0.00 | 85 | 1018.0 |
| 20260507125737 | 9 | 16 | 8.0 | 11.3 | 0.00 | 0.00 | 0.00 | 85 | 1018.0 |
| 20260507125237 | 8 | 36 | 9.7 | 16.1 | 0.00 | 0.00 | 0.00 | 86 | 1018.0 |
| 20260507124738 | 8 | 39 | 11.3 | 16.1 | 0.00 | 0.00 | 0.00 | 86 | 1018.0 |
| 20260507124237 | 8 | 36 | 6.4 | 9.7 | 0.00 | 0.00 | 0.00 | 87 | 1018.0 |
| 20260507123737 | 8 | 34 | 6.4 | 9.7 | 0.00 | 0.00 | 0.00 | 87 | 1018.0 |
| 20260507123238 | 8 | 38 | 6.4 | 8.0 | 0.00 | 0.00 | 0.00 | 88 | 1018.0 |
| 20260507122737 | 8 | 38 | 4.8 | 8.0 | 0.00 | 0.00 | 0.00 | 88 | 1018.0 |
| 20260507122237 | 7 | 42 | 3.2 | 6.4 | 0.00 | 0.00 | 0.00 | 88 | 1018.0 |
| 20260507121737 | 7 | 44 | 4.8 | 17.7 | 0.00 | 0.00 | 0.00 | 89 | 1018.0 |
| 20260507121239 | 7 | 15 | 3.2 | 4.8 | 0.00 | 0.00 | 0.00 | 90 | 1018.0 |
| 20260507120738 | 7 | 40 | 4.8 | 6.4 | 0.00 | 0.00 | 0.00 | 91 | 1018.0 |
| 20260507120237 | 6 | 40 | 4.8 | 6.4 | 0.00 | 0.00 | 0.00 | 91 | 1018.0 |
| 20260507115737 | 6 | 34 | 3.2 | 4.8 | 0.00 | 0.00 | 0.00 | 92 | 1018.0 |
| 20260507115237 | 6 | 42 | 3.2 | 3.2 | 0.00 | 0.00 | 0.00 | 92 | 1018.0 |
| 20260507114737 | 6 | 36 | 3.2 | 6.4 | 0.00 | 0.00 | 0.00 | 93 | 1018.0 |
| 20260507114237 | 6 | 43 | 4.8 | 12.9 | 0.00 | 0.00 | 0.00 | 93 | 1018.0 |
| 20260507113737 | 6 | 43 | 4.8 | 12.9 | 0.00 | 0.00 | 0.00 | 93 | 1018.0 |
| 20260507113237 | 6 | 43 | 3.2 | 3.2 | 0.00 | 0.00 | 0.00 | 94 | 1018.0 |
| 20260507112739 | 6 | 34 | 3.2 | 4.8 | 0.00 | 0.00 | 0.00 | 94 | 1018.0 |
| 20260507112237 | 6 | 26 | 3.2 | 3.2 | 0.00 | 0.00 | 0.00 | 93 | 1018.0 |
| 20260507111737 | 6 | 39 | 3.2 | 4.8 | 0.00 | 0.00 | 0.00 | 93 | 1018.0 |
| 20260507111238 | 6 | 41 | 1.6 | 3.2 | 0.00 | 0.00 | 0.00 | 92 | 1018.0 |
| 20260507110738 | 6 | 23 | 4.8 | 4.8 | 0.00 | 0.00 | 0.00 | 92 | 1018.0 |
| 20260507110239 | 7 | 56 | 3.2 | 3.2 | 0.00 | 0.00 | 0.00 | 91 | 1018.0 |
| 20260507105737 | 7 | 35 | 3.2 | 4.8 | 0.00 | 0.00 | 0.00 | 91 | 1018.0 |
| 20260507105237 | 7 | 347 | 3.2 | 3.2 | 0.00 | 0.00 | 0.00 | 90 | 1018.0 |
| 20260507104737 | 7 | 39 | 3.2 | 4.8 | 0.00 | 0.00 | 0.00 | 90 | 1018.0 |
| 20260507104238 | 7 | 39 | 3.2 | 4.8 | 0.00 | 0.00 | 0.00 | 90 | 1018.0 |
| 20260507103744 | 7 | 37 | 3.2 | 4.8 | 0.00 | 0.00 | 0.00 | 90 | 1018.0 |
| 20260507103237 | 7 | 48 | 4.8 | 9.7 | 0.00 | 0.00 | 0.00 | 90 | 1018.0 |
| 20260507102738 | 7 | 41 | 1.6 | 3.2 | 0.00 | 0.00 | 0.00 | 90 | 1018.0 |
| 20260507102237 | 7 | 29 | 3.2 | 3.2 | 0.00 | 0.00 | 0.00 | 90 | 1018.0 |
| 20260507101737 | 7 | 37 | 3.2 | 4.8 | 0.00 | 0.00 | 0.00 | 89 | 1018.0 |
| 20260507101237 | 7 | 39 | 3.2 | 4.8 | 0.00 | 0.00 | 0.00 | 89 | 1018.0 |
| 20260507100737 | 7 | 42 | 3.2 | 3.2 | 0.00 | 0.00 | 0.00 | 88 | 1018.0 |
| 20260507100238 | 7 | 27 | 3.2 | 3.2 | 0.00 | 0.00 | 0.00 | 88 | 1018.0 |
| 20260507095737 | 7 | 44 | 3.2 | 4.8 | 0.00 | 0.00 | 0.00 | 88 | 1018.0 |
| 20260507095237 | 7 | 15 | 3.2 | 3.2 | 0.00 | 0.00 | 0.00 | 88 | 1018.0 |
| 20260507094737 | 7 | 39 | 3.2 | 3.2 | 0.00 | 0.00 | 0.00 | 88 | 1018.0 |
| 20260507094238 | 7 | 23 | 3.2 | 3.2 | 0.00 | 0.00 | 0.00 | 87 | 1019.0 |
| 20260507093740 | 8 | 33 | 3.2 | 3.2 | 0.00 | 0.00 | 0.00 | 86 | 1019.0 |
| 20260507093238 | 8 | 23 | 3.2 | 4.8 | 0.00 | 0.00 | 0.00 | 86 | 1019.0 |
| 20260507092737 | 8 | 40 | 3.2 | 3.2 | 0.00 | 0.00 | 0.00 | 86 | 1019.0 |
| 20260507092238 | 8 | 41 | 3.2 | 4.8 | 0.00 | 0.00 | 0.00 | 86 | 1019.0 |
| 20260507091737 | 8 | 16 | 3.2 | 3.2 | 0.00 | 0.00 | 0.00 | 85 | 1019.0 |
| 20260507091237 | 8 | 38 | 3.2 | 4.8 | 0.00 | 0.00 | 0.00 | 85 | 1019.0 |
| 20260507090738 | 8 | 15 | 4.8 | 6.4 | 0.00 | 0.00 | 0.00 | 86 | 1019.0 |
| 20260507090237 | 8 | 17 | 4.8 | 4.8 | 0.00 | 0.00 | 0.00 | 85 | 1019.0 |
| 20260507085737 | 9 | 39 | 4.8 | 6.4 | 0.00 | 0.00 | 0.00 | 84 | 1019.0 |
| 20260507085237 | 9 | 37 | 6.4 | 8.0 | 0.00 | 0.00 | 0.00 | 84 | 1019.0 |
| 20260507084737 | 9 | 36 | 6.4 | 6.4 | 0.00 | 0.00 | 0.00 | 84 | 1019.0 |
| 20260507084237 | 9 | 19 | 6.4 | 8.0 | 0.00 | 0.00 | 0.00 | 83 | 1019.0 |
| 20260507083737 | 10 | 35 | 6.4 | 8.0 | 0.00 | 0.00 | 0.00 | 83 | 1019.0 |
| 20260507083237 | 10 | 12 | 6.4 | 11.3 | 0.00 | 0.00 | 0.00 | 82 | 1019.0 |
| 20260507082738 | 10 | 349 | 6.4 | 8.0 | 0.00 | 0.00 | 0.00 | 83 | 1019.0 |
| 20260507082238 | 10 | 337 | 8.0 | 9.7 | 0.00 | 0.00 | 0.00 | 83 | 1019.0 |
| 20260507081737 | 10 | 14 | 6.4 | 6.4 | 0.00 | 0.00 | 0.00 | 80 | 1019.0 |
| 20260507081238 | 10 | 4 | 6.4 | 8.0 | 0.00 | 0.00 | 0.00 | 80 | 1019.0 |
| 20260507080739 | 10 | 16 | 4.8 | 6.4 | 0.00 | 0.00 | 0.00 | 80 | 1019.0 |
| 20260507080237 | 10 | 30 | 6.4 | 6.4 | 0.00 | 0.00 | 0.00 | 80 | 1019.0 |
| 20260507075737 | 10 | 11 | 6.4 | 9.7 | 0.00 | 0.00 | 0.00 | 81 | 1019.0 |
| 20260507075238 | 10 | 25 | 6.4 | 8.0 | 0.00 | 0.00 | 0.00 | 79 | 1019.0 |
| 20260507074737 | 10 | 15 | 3.2 | 6.4 | 0.00 | 0.00 | 0.00 | 80 | 1019.0 |
| 20260507074239 | 10 | 34 | 6.4 | 6.4 | 0.00 | 0.00 | 0.00 | 80 | 1019.0 |
| 20260507073738 | 10 | 7 | 6.4 | 6.4 | 0.00 | 0.00 | 0.00 | 80 | 1019.0 |
| 20260507073238 | 10 | 19 | 6.4 | 8.0 | 0.00 | 0.00 | 0.00 | 81 | 1019.0 |
| 20260507072737 | 10 | 13 | 6.4 | 8.0 | 0.00 | 0.00 | 0.00 | 80 | 1019.0 |
| 20260507072237 | 10 | 356 | 8.0 | 17.7 | 0.00 | 0.00 | 0.00 | 79 | 1019.0 |
| 20260507071737 | 10 | 1 | 6.4 | 8.0 | 0.00 | 0.00 | 0.00 | 79 | 1019.0 |
| 20260507071237 | 10 | 4 | 6.4 | 9.7 | 0.00 | 0.00 | 0.00 | 78 | 1019.0 |
| 20260507070737 | 10 | 351 | 6.4 | 9.7 | 0.00 | 0.00 | 0.00 | 78 | 1019.0 |
| 20260507070238 | 10 | 2 | 6.4 | 9.7 | 0.00 | 0.00 | 0.00 | 79 | 1019.0 |
| 20260507065737 | 10 | 13 | 4.8 | 8.0 | 0.00 | 0.00 | 0.00 | 78 | 1019.0 |
| 20260507065237 | 10 | 1 | 4.8 | 6.4 | 0.00 | 0.00 | 0.00 | 78 | 1019.0 |
| 20260507064737 | 10 | 27 | 4.8 | 6.4 | 0.00 | 0.00 | 0.00 | 79 | 1019.0 |
| 20260507064237 | 10 | 23 | 4.8 | 8.0 | 0.00 | 0.00 | 0.00 | 81 | 1019.0 |
| 20260507063247 | 11 | 15 | 6.4 | 8.0 | 0.00 | 0.00 | 0.00 | 80 | 1019.0 |
| 20260507062738 | 11 | 356 | 6.4 | 8.0 | 0.00 | 0.00 | 0.00 | 80 | 1019.0 |
| 20260507062238 | 11 | 337 | 6.4 | 9.7 | 0.00 | 0.00 | 0.00 | 79 | 1019.0 |
| 20260507061737 | 11 | 340 | 6.4 | 6.4 | 0.00 | 0.00 | 0.00 | 78 | 1019.0 |
| 20260507061238 | 11 | 18 | 4.8 | 6.4 | 0.00 | 0.00 | 0.00 | 77 | 1019.0 |
| 20260507060738 | 11 | 9 | 6.4 | 11.3 | 0.00 | 0.00 | 0.00 | 76 | 1019.0 |
| 20260507060237 | 11 | 339 | 4.8 | 6.4 | 0.00 | 0.00 | 0.00 | 75 | 1019.0 |
| 20260507055737 | 11 | 304 | 4.8 | 8.0 | 0.00 | 0.00 | 0.00 | 75 | 1019.0 |
| 20260507055237 | 11 | 10 | 4.8 | 8.0 | 0.00 | 0.00 | 0.00 | 75 | 1019.0 |
| 20260507054738 | 11 | 10 | 4.8 | 6.4 | 0.00 | 0.00 | 0.00 | 78 | 1019.0 |
| 20260507054238 | 11 | 354 | 4.8 | 6.4 | 0.00 | 0.00 | 0.00 | 78 | 1019.0 |
| 20260507053737 | 11 | 350 | 4.8 | 6.4 | 0.00 | 0.00 | 0.00 | 77 | 1019.0 |
| 20260507053238 | 11 | 355 | 6.4 | 8.0 | 0.00 | 0.00 | 0.00 | 78 | 1019.0 |
| 20260507052737 | 11 | 329 | 6.4 | 8.0 | 0.00 | 0.00 | 0.00 | 79 | 1020.0 |
| 20260507052237 | 11 | 339 | 6.4 | 9.7 | 0.00 | 0.00 | 0.00 | 80 | 1020.0 |
| 20260507051739 | 11 | 328 | 6.4 | 8.0 | 0.00 | 0.00 | 0.00 | 77 | 1020.0 |
| 20260507051237 | 11 | 337 | 4.8 | 8.0 | 0.00 | 0.00 | 0.00 | 76 | 1019.0 |
| 20260507050738 | 11 | 6 | 4.8 | 6.4 | 0.00 | 0.00 | 0.00 | 72 | 1019.0 |
| 20260507050237 | 11 | 5 | 4.8 | 8.0 | 0.00 | 0.00 | 0.00 | 72 | 1019.0 |
| 20260507045738 | 11 | 22 | 3.2 | 6.4 | 0.00 | 0.00 | 0.71 | 70 | 1019.0 |
| 20260507045237 | 12 | 13 | 4.8 | 6.4 | 0.00 | 0.00 | 0.71 | 68 | 1019.0 |
| 20260507044738 | 12 | 359 | 6.4 | 8.0 | 0.00 | 0.00 | 0.71 | 70 | 1019.0 |
| 20260507044238 | 12 | 4 | 3.2 | 6.4 | 0.00 | 0.00 | 0.71 | 67 | 1019.0 |
| 20260507043737 | 12 | 14 | 4.8 | 6.4 | 0.00 | 0.00 | 0.71 | 66 | 1019.0 |
| 20260507043239 | 12 | 16 | 4.8 | 6.4 | 0.00 | 0.00 | 0.71 | 68 | 1019.0 |
| 20260507042737 | 12 | 0 | 6.4 | 8.0 | 0.00 | 0.00 | 0.71 | 68 | 1019.0 |
| 20260507042237 | 11 | 1 | 4.8 | 8.0 | 0.00 | 0.00 | 0.71 | 69 | 1019.0 |
| 20260507041737 | 11 | 6 | 4.8 | 6.4 | 0.00 | 0.00 | 0.71 | 72 | 1019.0 |
| 20260507041238 | 11 | 9 | 4.8 | 6.4 | 0.00 | 0.00 | 0.71 | 71 | 1019.0 |
| 20260507040737 | 11 | 15 | 4.8 | 6.4 | 0.00 | 0.00 | 0.71 | 72 | 1019.0 |
| 20260507040239 | 11 | 0 | 4.8 | 6.4 | 0.00 | 0.00 | 0.71 | 78 | 1019.0 |
| 20260507035740 | 11 | 3 | 3.2 | 4.8 | 0.00 | 0.00 | 0.71 | 76 | 1019.0 |
| 20260507035238 | 11 | 337 | 3.2 | 4.8 | 0.00 | 0.00 | 0.71 | 76 | 1019.0 |
| 20260507034738 | 12 | 16 | 4.8 | 6.4 | 0.00 | 0.00 | 0.71 | 73 | 1019.0 |
| 20260507034239 | 12 | 19 | 3.2 | 6.4 | 0.00 | 0.00 | 0.71 | 71 | 1020.0 |
| 20260507033738 | 12 | 24 | 3.2 | 4.8 | 0.00 | 0.00 | 0.71 | 70 | 1019.0 |
| 20260507033237 | 12 | 12 | 3.2 | 6.4 | 0.00 | 0.00 | 0.71 | 69 | 1020.0 |
| 20260507032738 | 12 | 11 | 4.8 | 6.4 | 0.00 | 0.00 | 0.71 | 68 | 1019.0 |
| 20260507032238 | 12 | 7 | 4.8 | 6.4 | 0.00 | 0.00 | 0.71 | 70 | 1019.0 |
| 20260507031737 | 12 | 21 | 3.2 | 4.8 | 0.00 | 0.00 | 0.71 | 68 | 1019.0 |
| 20260507031238 | 12 | 24 | 3.2 | 4.8 | 0.00 | 0.00 | 0.71 | 67 | 1019.0 |
| 20260507030737 | 12 | 32 | 3.2 | 6.4 | 0.00 | 0.00 | 0.71 | 64 | 1019.0 |
| 20260507030238 | 12 | 13 | 4.8 | 6.4 | 0.00 | 0.00 | 0.71 | 61 | 1019.0 |
| 20260507025737 | 12 | 18 | 3.2 | 4.8 | 0.00 | 0.00 | 0.71 | 60 | 1019.0 |
| 20260507025237 | 12 | 7 | 4.8 | 6.4 | 0.00 | 0.00 | 0.71 | 60 | 1019.0 |
| 20260507024737 | 12 | 22 | 4.8 | 6.4 | 0.00 | 0.00 | 0.71 | 60 | 1019.0 |
| 20260507024238 | 13 | 19 | 4.8 | 6.4 | 0.00 | 0.00 | 0.71 | 61 | 1019.0 |
| 20260507023737 | 13 | 19 | 3.2 | 4.8 | 0.00 | 0.00 | 0.71 | 61 | 1019.0 |
| 20260507023237 | 13 | 13 | 4.8 | 6.4 | 0.00 | 0.00 | 0.71 | 57 | 1019.0 |
| 20260507022737 | 13 | 10 | 4.8 | 6.4 | 0.00 | 0.00 | 0.71 | 56 | 1019.0 |
| 20260507022237 | 13 | 10 | 4.8 | 6.4 | 0.00 | 0.00 | 0.71 | 56 | 1019.0 |
| 20260507021737 | 13 | 35 | 6.4 | 8.0 | 0.00 | 0.00 | 0.71 | 55 | 1019.0 |
| 20260507021237 | 13 | 31 | 4.8 | 6.4 | 0.00 | 0.00 | 0.71 | 55 | 1019.0 |
| 20260507020744 | 13 | 27 | 6.4 | 11.3 | 0.00 | 0.00 | 0.71 | 55 | 1019.0 |
| 20260507020237 | 13 | 357 | 3.2 | 6.4 | 0.00 | 0.00 | 0.71 | 57 | 1019.0 |
| 20260507015738 | 13 | 6 | 4.8 | 6.4 | 0.00 | 0.00 | 0.71 | 55 | 1019.0 |
| 20260507015237 | 13 | 18 | 4.8 | 12.9 | 0.00 | 0.00 | 0.71 | 54 | 1019.0 |
| 20260507014738 | 13 | 19 | 6.4 | 9.7 | 0.00 | 0.00 | 0.71 | 54 | 1018.0 |
| 20260507014239 | 13 | 0 | 3.2 | 6.4 | 0.00 | 0.00 | 0.71 | 56 | 1018.0 |
| 20260507013737 | 13 | 354 | 3.2 | 6.4 | 0.00 | 0.00 | 0.71 | 56 | 1018.0 |
| 20260507013238 | 13 | 21 | 3.2 | 4.8 | 0.00 | 0.00 | 0.71 | 55 | 1018.0 |
| 20260507012737 | 13 | 27 | 4.8 | 6.4 | 0.00 | 0.00 | 0.71 | 55 | 1018.0 |
| 20260507012237 | 13 | 26 | 3.2 | 6.4 | 0.00 | 0.00 | 0.71 | 55 | 1018.0 |
| 20260507011738 | 13 | 34 | 6.4 | 9.7 | 0.00 | 0.00 | 0.71 | 54 | 1018.0 |
| 20260507011238 | 13 | 359 | 3.2 | 6.4 | 0.00 | 0.00 | 0.71 | 55 | 1018.0 |
| 20260507010737 | 13 | 31 | 4.8 | 12.9 | 0.00 | 0.00 | 0.71 | 53 | 1018.0 |
| 20260507010237 | 13 | 36 | 6.4 | 12.9 | 0.00 | 0.00 | 0.71 | 53 | 1018.0 |
| 20260507005737 | 13 | 7 | 3.2 | 4.8 | 0.00 | 0.00 | 0.71 | 53 | 1018.0 |
| 20260507005238 | 14 | 346 | 3.2 | 6.4 | 0.00 | 0.00 | 0.71 | 53 | 1018.0 |
| 20260507004738 | 14 | 313 | 4.8 | 6.4 | 0.00 | 0.00 | 0.71 | 53 | 1018.0 |
| 20260507004237 | 14 | 30 | 3.2 | 14.5 | 0.00 | 0.00 | 0.71 | 53 | 1018.0 |
| 20260507003737 | 14 | 323 | 3.2 | 4.8 | 0.00 | 0.00 | 0.71 | 55 | 1018.0 |
| 20260507003237 | 14 | 0 | 3.2 | 8.0 | 0.00 | 0.00 | 0.71 | 53 | 1018.0 |
| 20260507002738 | 14 | 26 | 6.4 | 11.3 | 0.00 | 0.00 | 0.71 | 52 | 1018.0 |
| 20260507002238 | 14 | 59 | 8.0 | 12.9 | 0.00 | 0.00 | 0.71 | 52 | 1018.0 |
| 20260507001737 | 14 | 303 | 3.2 | 4.8 | 0.00 | 0.00 | 0.71 | 52 | 1018.0 |
| 20260507001238 | 14 | 326 | 3.2 | 6.4 | 0.00 | 0.00 | 0.71 | 52 | 1018.0 |
| 20260507000737 | 14 | 345 | 3.2 | 6.4 | 0.00 | 0.00 | 0.71 | 53 | 1018.0 |
| 20260507000237 | 14 | 13 | 8.0 | 12.9 | 0.00 | 0.00 | 0.71 | 51 | 1018.0 |
| 20260506235737 | 14 | 310 | 4.8 | 8.0 | 0.00 | 0.00 | 0.71 | 52 | 1018.0 |
| 20260506235237 | 14 | 1 | 4.8 | 6.4 | 0.00 | 0.00 | 0.71 | 52 | 1018.0 |
| 20260506234738 | 14 | 352 | 6.4 | 6.4 | 0.00 | 0.00 | 0.71 | 51 | 1018.0 |
| 20260506234238 | 15 | 15 | 6.4 | 11.3 | 0.00 | 0.00 | 0.71 | 50 | 1018.0 |
| 20260506233737 | 15 | 9 | 4.8 | 6.4 | 0.00 | 0.00 | 0.71 | 52 | 1018.0 |
| 20260506233238 | 15 | 25 | 9.7 | 12.9 | 0.00 | 0.00 | 0.71 | 50 | 1018.0 |
| 20260506232737 | 15 | 38 | 8.0 | 16.1 | 0.00 | 0.00 | 0.71 | 50 | 1018.0 |
| 20260506232237 | 14 | 28 | 11.3 | 16.1 | 0.00 | 0.00 | 0.71 | 50 | 1018.0 |
| 20260506231737 | 14 | 342 | 9.7 | 14.5 | 0.00 | 0.00 | 0.71 | 51 | 1018.0 |
| 20260506231237 | 14 | 26 | 9.7 | 14.5 | 0.00 | 0.00 | 0.71 | 50 | 1018.0 |
| 20260506230737 | 14 | 25 | 4.8 | 11.3 | 0.00 | 0.00 | 0.71 | 52 | 1018.0 |
| 20260506230237 | 15 | 36 | 9.7 | 22.5 | 0.00 | 0.00 | 0.71 | 51 | 1018.0 |
| 20260506225737 | 15 | 15 | 8.0 | 17.7 | 0.00 | 0.00 | 0.71 | 51 | 1018.0 |
| 20260506225238 | 15 | 46 | 6.4 | 12.9 | 0.00 | 0.00 | 0.71 | 49 | 1018.0 |
| 20260506224738 | 15 | 43 | 4.8 | 11.3 | 0.00 | 0.00 | 0.71 | 50 | 1018.0 |
| 20260506224238 | 15 | 12 | 4.8 | 9.7 | 0.00 | 0.00 | 0.71 | 48 | 1018.0 |
| 20260506223737 | 15 | 36 | 8.0 | 16.1 | 0.00 | 0.00 | 0.71 | 47 | 1018.0 |
| 20260506223237 | 15 | 36 | 8.0 | 9.7 | 0.00 | 0.00 | 0.71 | 49 | 1018.0 |
| 20260506222738 | 15 | 35 | 6.4 | 11.3 | 0.00 | 0.00 | 0.71 | 49 | 1018.0 |
| 20260506222238 | 15 | 34 | 4.8 | 8.0 | 0.00 | 0.00 | 0.71 | 49 | 1018.0 |
| 20260506221737 | 15 | 38 | 9.7 | 20.9 | 0.00 | 0.00 | 0.71 | 48 | 1017.0 |
| 20260506221238 | 15 | 50 | 6.4 | 12.9 | 0.00 | 0.00 | 0.71 | 49 | 1017.0 |
| 20260506220738 | 15 | 353 | 6.4 | 12.9 | 0.00 | 0.00 | 0.71 | 49 | 1017.0 |
| 20260506220238 | 15 | 34 | 6.4 | 14.5 | 0.00 | 0.00 | 0.71 | 47 | 1018.0 |
| 20260506215737 | 15 | 14 | 6.4 | 11.3 | 0.00 | 0.00 | 0.71 | 47 | 1018.0 |
| 20260506215237 | 15 | 26 | 6.4 | 11.3 | 0.00 | 0.00 | 0.71 | 48 | 1018.0 |
| 20260506214737 | 15 | 22 | 6.4 | 9.7 | 0.00 | 0.00 | 0.71 | 50 | 1018.0 |
| 20260506214237 | 15 | 350 | 6.4 | 11.3 | 0.00 | 0.00 | 0.71 | 49 | 1018.0 |
| 20260506213737 | 15 | 26 | 8.0 | 11.3 | 0.00 | 0.00 | 0.71 | 47 | 1018.0 |
| 20260506213238 | 16 | 36 | 4.8 | 8.0 | 0.00 | 0.00 | 0.71 | 47 | 1018.0 |
| 20260506212737 | 16 | 49 | 3.2 | 8.0 | 0.00 | 0.00 | 0.71 | 50 | 1018.0 |
| 20260506212237 | 16 | 40 | 11.3 | 30.6 | 0.00 | 0.00 | 0.71 | 47 | 1018.0 |
| 20260506211737 | 16 | 40 | 11.3 | 27.4 | 0.00 | 0.00 | 0.71 | 49 | 1018.0 |
| 20260506211237 | 16 | 42 | 8.0 | 25.7 | 0.00 | 0.00 | 0.71 | 50 | 1018.0 |
| 20260506210738 | 16 | 36 | 9.7 | 27.4 | 0.00 | 0.00 | 0.71 | 48 | 1018.0 |
| 20260506210238 | 16 | 31 | 9.7 | 14.5 | 0.00 | 0.00 | 0.71 | 47 | 1018.0 |
| 20260506205737 | 16 | 47 | 4.8 | 9.7 | 0.00 | 0.00 | 0.71 | 46 | 1018.0 |
| 20260506205238 | 16 | 50 | 9.7 | 20.9 | 0.00 | 0.00 | 0.71 | 49 | 1018.0 |
| 20260506204737 | 16 | 38 | 9.7 | 17.7 | 0.00 | 0.00 | 0.71 | 49 | 1018.0 |
| 20260506204237 | 15 | 50 | 6.4 | 19.3 | 0.00 | 0.00 | 0.71 | 51 | 1018.0 |
| 20260506203737 | 15 | 34 | 8.0 | 19.3 | 0.00 | 0.00 | 0.71 | 49 | 1019.0 |
| 20260506203238 | 16 | 44 | 12.9 | 27.4 | 0.00 | 0.00 | 0.71 | 50 | 1018.0 |
| 20260506202737 | 15 | 25 | 4.8 | 9.7 | 0.00 | 0.00 | 0.71 | 49 | 1019.0 |
| 20260506202238 | 16 | 42 | 6.4 | 8.0 | 0.00 | 0.00 | 0.71 | 50 | 1019.0 |
| 20260506201737 | 16 | 52 | 12.9 | 22.5 | 0.00 | 0.00 | 0.71 | 49 | 1019.0 |
| 20260506201237 | 15 | 46 | 6.4 | 14.5 | 0.00 | 0.00 | 0.71 | 49 | 1019.0 |
| 20260506200737 | 15 | 30 | 6.4 | 14.5 | 0.00 | 0.00 | 0.71 | 50 | 1019.0 |
| 20260506200238 | 15 | 350 | 8.0 | 17.7 | 0.00 | 0.00 | 0.71 | 51 | 1019.0 |
| 20260506195737 | 15 | 31 | 4.8 | 8.0 | 0.00 | 0.00 | 0.71 | 51 | 1019.0 |
| 20260506195237 | 14 | 29 | 8.0 | 19.3 | 0.00 | 0.00 | 0.71 | 51 | 1019.0 |
| 20260506194737 | 15 | 47 | 11.3 | 17.7 | 0.00 | 0.00 | 0.71 | 52 | 1019.0 |
| 20260506175238 | 13 | 52 | 8.0 | 14.5 | 0.00 | 0.00 | 0.71 | 57 | 1020.0 |
| 20260506174738 | 13 | 40 | 11.3 | 16.1 | 0.00 | 0.00 | 0.71 | 58 | 1020.0 |
| 20260506172737 | 12 | 30 | 14.5 | 27.4 | 0.00 | 0.00 | 0.71 | 59 | 1020.0 |
| 20260506172244 | 12 | 41 | 6.4 | 11.3 | 0.00 | 0.00 | 0.71 | 63 | 1020.0 |
| 20260506171739 | 12 | 34 | 6.4 | 9.7 | 0.00 | 0.00 | 0.71 | 67 | 1020.0 |
| 20260506171238 | 12 | 39 | 8.0 | 20.9 | 0.00 | 0.00 | 0.71 | 66 | 1020.0 |
| 20260506170737 | 11 | 40 | 8.0 | 20.9 | 0.00 | 0.00 | 0.71 | 67 | 1020.0 |
| 20260506170237 | 11 | 39 | 9.7 | 24.1 | 0.00 | 0.00 | 0.71 | 69 | 1020.0 |
| 20260506165737 | 11 | 31 | 9.7 | 12.9 | 0.00 | 0.00 | 0.71 | 69 | 1020.0 |
| 20260506165237 | 11 | 39 | 11.3 | 33.8 | 0.00 | 0.00 | 0.71 | 71 | 1020.0 |
| 20260506164238 | 11 | 34 | 11.3 | 32.2 | 0.00 | 0.00 | 0.71 | 71 | 1020.0 |
| 20260506163737 | 11 | 35 | 8.0 | 12.9 | 0.00 | 0.00 | 0.71 | 71 | 1020.0 |
| 20260506163238 | 11 | 49 | 27.4 | 45.1 | 0.00 | 0.00 | 0.71 | 73 | 1020.0 |
| 20260506162738 | 10 | 41 | 19.3 | 40.2 | 0.00 | 0.00 | 0.71 | 73 | 1020.0 |
| 20260506161737 | 10 | 359 | 9.7 | 17.7 | 0.00 | 0.00 | 0.71 | 76 | 1020.0 |
| 20260506160737 | 10 | 22 | 9.7 | 14.5 | 0.00 | 0.00 | 0.71 | 77 | 1020.0 |
| 20260506155738 | 9 | 23 | 9.7 | 12.9 | 0.00 | 0.00 | 0.71 | 76 | 1020.0 |
| 20260506155238 | 9 | 35 | 12.9 | 16.1 | 0.00 | 0.00 | 0.71 | 76 | 1020.0 |
| 20260506154740 | 9 | 31 | 12.9 | 17.7 | 0.00 | 0.00 | 0.71 | 77 | 1020.0 |
| 20260506154239 | 9 | 18 | 9.7 | 12.9 | 0.00 | 0.00 | 0.71 | 78 | 1020.0 |
| 20260506153738 | 9 | 26 | 9.7 | 12.9 | 0.00 | 0.00 | 0.71 | 78 | 1020.0 |
| 20260506153238 | 9 | 33 | 9.7 | 14.5 | 0.00 | 0.00 | 0.71 | 77 | 1020.0 |
| 20260506152738 | 9 | 34 | 14.5 | 17.7 | 0.00 | 0.00 | 0.71 | 76 | 1020.0 |
| 20260506152238 | 9 | 25 | 14.5 | 17.7 | 0.00 | 0.00 | 0.71 | 77 | 1020.0 |
| 20260506151738 | 8 | 36 | 12.9 | 16.1 | 0.00 | 0.00 | 0.71 | 78 | 1020.0 |
| 20260506145737 | 8 | 29 | 9.7 | 12.9 | 0.00 | 0.00 | 0.71 | 78 | 1020.0 |
| 20260506145238 | 8 | 30 | 11.3 | 14.5 | 0.00 | 0.00 | 0.71 | 79 | 1020.0 |
| 20260506144738 | 8 | 34 | 9.7 | 12.9 | 0.00 | 0.00 | 0.71 | 79 | 1020.0 |